"read_dt","SO2 (ppb)","flags","PMT voltage (V)","lamp voltage (V)","lamp intensity (Hz)","internal temp (C)","react chamber temp (C)","sample flow (l/min)","pres (mmHg)","SO2 bkg (ppb)","SO2 coefficient"
2015-10-12 00:00:00,1862E-3,5C000400,-0724,0826,12195,029.5,045.5,0.253,754.5,01.17,0.508
2015-10-12 00:01:00,1925E-3,5C000400,-0724,0826,12192,029.5,045.5,0.253,754.6,01.17,0.508
2015-10-12 00:02:00,1845E-3,5C000400,-0724,0826,12223,029.5,045.5,0.253,754.6,01.17,0.508
2015-10-12 00:03:00,1841E-3,5C000400,-0724,0826,12219,029.5,045.5,0.253,754.6,01.17,0.508
2015-10-12 00:04:00,1814E-3,5C000400,-0724,0825,12216,029.5,045.5,0.254,754.7,01.17,0.508
2015-10-12 00:05:00,1766E-3,5C000400,-0724,0826,12294,029.5,045.5,0.254,754.6,01.17,0.508
2015-10-12 00:06:00,1811E-3,5C000400,-0724,0826,12160,029.5,045.5,0.254,754.6,01.17,0.508
2015-10-12 00:07:00,1965E-3,5C000400,-0724,0826,12065,029.5,045.5,0.254,754.6,01.17,0.508
2015-10-12 00:08:00,1899E-3,5C000400,-0724,0826,12249,029.5,045.5,0.254,754.6,01.17,0.508
2015-10-12 00:09:00,2019E-3,5C000400,-0724,0826,12356,029.5,045.5,0.254,754.6,01.17,0.508
2015-10-12 00:10:00,1953E-3,5C000400,-0724,0826,12260,029.5,045.5,0.254,754.6,01.17,0.508
2015-10-12 00:11:00,1901E-3,5C000400,-0724,0826,12204,029.5,045.5,0.254,754.6,01.17,0.508
2015-10-12 00:12:00,1883E-3,5C000400,-0724,0826,12206,029.5,045.5,0.254,754.7,01.17,0.508
2015-10-12 00:13:00,1847E-3,5C000400,-0724,0826,12131,029.5,045.5,0.254,754.6,01.17,0.508
2015-10-12 00:14:00,1946E-3,5C000400,-0724,0827,12278,029.5,045.5,0.254,754.6,01.17,0.508
2015-10-12 00:15:00,1852E-3,5C000400,-0724,0826,12108,029.6,045.5,0.254,754.4,01.17,0.508
2015-10-12 00:16:00,2035E-3,5C000400,-0724,0826,12140,029.5,045.5,0.254,754.2,01.17,0.508
2015-10-12 00:17:00,1887E-3,5C000400,-0724,0826,12254,029.5,045.5,0.254,754.3,01.17,0.508
2015-10-12 00:18:00,1967E-3,5C000400,-0724,0827,12285,029.5,045.5,0.254,754.6,01.17,0.508
2015-10-12 00:19:00,1966E-3,5C000400,-0724,0827,12221,029.6,045.5,0.254,754.3,01.17,0.508
2015-10-12 00:20:00,1937E-3,5C000400,-0724,0827,12324,029.6,045.5,0.254,754.0,01.17,0.508
2015-10-12 00:21:00,1901E-3,5C000400,-0724,0826,12336,029.5,045.5,0.254,754.2,01.17,0.508
2015-10-12 00:22:00,1844E-3,5C000400,-0724,0826,12217,029.6,045.5,0.254,754.3,01.17,0.508
2015-10-12 00:23:00,1940E-3,5C000400,-0724,0826,12323,029.5,045.5,0.253,754.0,01.17,0.508
2015-10-12 00:24:00,1971E-3,5C000400,-0724,0826,12241,029.6,045.5,0.253,754.1,01.17,0.508
2015-10-12 00:25:00,1789E-3,5C000400,-0724,0826,12189,029.6,045.5,0.253,754.0,01.17,0.508
2015-10-12 00:26:00,1917E-3,5C000400,-0724,0826,12314,029.6,045.5,0.253,754.3,01.17,0.508
2015-10-12 00:27:00,2011E-3,5C000400,-0724,0826,12166,029.6,045.5,0.253,754.0,01.17,0.508
2015-10-12 00:28:00,1976E-3,5C000400,-0724,0826,12232,029.5,045.5,0.253,754.2,01.17,0.508
2015-10-12 00:29:00,1789E-3,5C000400,-0724,0827,12230,029.6,045.5,0.254,754.0,01.17,0.508
2015-10-12 00:30:00,1872E-3,5C000400,-0724,0826,12165,029.5,045.5,0.253,754.2,01.17,0.508
2015-10-12 00:31:00,1828E-3,5C000400,-0724,0826,12202,029.6,045.5,0.254,754.4,01.17,0.508
2015-10-12 00:32:00,1888E-3,5C000400,-0724,0826,12191,029.6,045.5,0.254,754.2,01.17,0.508
2015-10-12 00:33:00,1839E-3,5C000400,-0724,0827,12100,029.6,045.5,0.254,754.1,01.17,0.508
2015-10-12 00:34:00,1878E-3,5C000400,-0724,0826,12172,029.6,045.5,0.254,753.8,01.17,0.508
2015-10-12 00:35:00,1911E-3,5C000400,-0724,0826,12229,029.6,045.5,0.254,754.1,01.17,0.508
2015-10-12 00:36:00,1856E-3,5C000400,-0724,0826,12219,029.6,045.5,0.254,754.1,01.17,0.508
2015-10-12 00:37:00,1805E-3,5C000400,-0724,0825,12295,029.6,045.5,0.253,754.0,01.17,0.508
2015-10-12 00:38:00,1926E-3,5C000400,-0724,0826,12319,029.6,045.5,0.253,754.0,01.17,0.508
2015-10-12 00:39:00,1914E-3,5C000400,-0724,0826,12141,029.6,045.5,0.253,754.1,01.17,0.508
2015-10-12 00:40:00,1908E-3,5C000400,-0724,0827,12186,029.6,045.5,0.253,754.0,01.17,0.508
2015-10-12 00:41:00,1654E-3,5C000400,-0724,0827,12169,029.6,045.5,0.253,754.4,01.17,0.508
2015-10-12 00:42:00,1933E-3,5C000400,-0724,0826,12181,029.6,045.5,0.253,754.2,01.17,0.508
2015-10-12 00:43:00,1917E-3,5C000400,-0724,0827,12199,029.6,045.5,0.253,754.2,01.17,0.508
2015-10-12 00:44:00,1937E-3,5C000400,-0724,0826,12212,029.6,045.5,0.254,754.0,01.17,0.508
2015-10-12 00:45:00,1986E-3,5C000400,-0724,0826,12183,029.6,045.5,0.254,754.1,01.17,0.508
2015-10-12 00:46:00,1899E-3,5C000400,-0724,0827,12206,029.6,045.5,0.254,754.1,01.17,0.508
2015-10-12 00:47:00,1808E-3,5C000400,-0724,0826,12308,029.6,045.5,0.254,754.2,01.17,0.508
2015-10-12 00:48:00,1795E-3,5C000400,-0724,0826,12189,029.6,045.5,0.254,753.9,01.17,0.508
2015-10-12 00:49:00,1892E-3,5C000400,-0724,0827,12293,029.6,045.5,0.253,754.3,01.17,0.508
2015-10-12 00:50:00,1840E-3,5C000400,-0724,0826,12159,029.6,045.5,0.253,754.0,01.17,0.508
2015-10-12 00:51:00,1797E-3,5C000400,-0724,0826,12261,029.6,045.5,0.253,754.3,01.17,0.508
2015-10-12 00:52:00,1844E-3,5C000400,-0724,0826,12232,029.6,045.5,0.253,754.0,01.17,0.508
2015-10-12 00:53:00,1810E-3,5C000400,-0724,0826,12215,029.6,045.5,0.253,754.1,01.17,0.508
2015-10-12 00:54:00,1847E-3,5C000400,-0724,0826,12296,029.6,045.5,0.253,753.9,01.17,0.508
2015-10-12 00:55:00,1841E-3,5C000400,-0724,0827,12278,029.6,045.5,0.253,754.0,01.17,0.508
2015-10-12 00:56:00,1904E-3,5C000400,-0724,0826,12061,029.6,045.5,0.254,754.1,01.17,0.508
2015-10-12 00:57:00,1985E-3,5C000400,-0724,0826,12099,029.6,045.5,0.254,753.8,01.17,0.508
2015-10-12 00:58:00,1866E-3,5C000400,-0724,0827,12208,029.6,045.5,0.254,753.9,01.17,0.508
2015-10-12 00:59:00,2011E-3,5C000400,-0724,0827,12161,029.6,045.5,0.254,754.0,01.17,0.508
2015-10-12 01:00:00,1943E-3,5C000400,-0724,0826,12165,029.6,045.5,0.253,754.0,01.17,0.508
2015-10-12 01:01:00,1802E-3,5C000400,-0724,0826,12117,029.7,045.5,0.253,754.1,01.17,0.508
2015-10-12 01:02:00,1880E-3,5C000400,-0724,0826,12257,029.6,045.5,0.253,753.6,01.17,0.508
2015-10-12 01:03:00,1939E-3,5C000400,-0724,0827,12296,029.7,045.5,0.253,753.8,01.17,0.508
2015-10-12 01:04:00,1929E-3,5C000400,-0724,0826,12122,029.7,045.5,0.253,753.6,01.17,0.508
2015-10-12 01:05:00,2057E-3,5C000400,-0724,0826,12260,029.6,045.5,0.253,754.2,01.17,0.508
2015-10-12 01:06:00,1856E-3,5C000400,-0724,0826,12286,029.6,045.5,0.253,753.9,01.17,0.508
2015-10-12 01:07:00,2005E-3,5C000400,-0724,0826,12231,029.7,045.5,0.253,753.8,01.17,0.508
2015-10-12 01:08:00,1886E-3,5C000400,-0724,0826,12212,029.7,045.5,0.253,753.9,01.17,0.508
2015-10-12 01:09:00,1940E-3,5C000400,-0724,0826,12323,029.6,045.5,0.253,753.8,01.17,0.508
2015-10-12 01:10:00,1955E-3,5C000400,-0724,0826,12255,029.6,045.5,0.253,753.6,01.17,0.508
2015-10-12 01:11:00,2066E-3,5C000400,-0724,0826,12228,029.7,045.5,0.253,754.0,01.17,0.508
2015-10-12 01:12:00,1767E-3,5C000400,-0724,0826,12293,029.7,045.5,0.253,754.1,01.17,0.508
2015-10-12 01:13:00,1844E-3,5C000400,-0724,0827,12315,029.6,045.5,0.253,753.7,01.17,0.508
2015-10-12 01:14:00,1990E-3,5C000400,-0724,0826,12367,029.7,045.5,0.253,753.9,01.17,0.508
2015-10-12 01:15:00,1751E-3,5C000400,-0724,0826,12255,029.7,045.5,0.253,753.9,01.17,0.508
2015-10-12 01:16:00,1916E-3,5C000400,-0724,0827,12196,029.7,045.5,0.253,754.2,01.17,0.508
2015-10-12 01:17:00,1927E-3,5C000400,-0724,0826,12187,029.7,045.5,0.253,753.9,01.17,0.508
2015-10-12 01:18:00,1870E-3,5C000400,-0724,0826,12181,029.7,045.5,0.253,753.7,01.17,0.508
2015-10-12 01:19:00,1886E-3,5C000400,-0724,0826,12138,029.7,045.5,0.253,753.7,01.17,0.508
2015-10-12 01:20:00,1848E-3,5C000400,-0724,0826,12315,029.7,045.5,0.253,753.9,01.17,0.508
2015-10-12 01:21:00,1899E-3,5C000400,-0724,0826,12288,029.7,045.5,0.253,753.6,01.17,0.508
2015-10-12 01:22:00,1925E-3,5C000400,-0724,0826,12210,029.6,045.5,0.253,753.5,01.17,0.508
2015-10-12 01:23:00,1848E-3,5C000400,-0724,0826,12304,029.7,045.5,0.253,753.8,01.17,0.508
2015-10-12 01:24:00,1821E-3,5C000400,-0724,0826,12147,029.7,045.5,0.253,753.7,01.17,0.508
2015-10-12 01:25:00,1932E-3,5C000400,-0724,0827,12183,029.7,045.5,0.253,753.8,01.17,0.508
2015-10-12 01:26:00,1898E-3,5C000400,-0724,0827,12220,029.7,045.5,0.253,754.0,01.17,0.508
2015-10-12 01:27:00,1740E-3,5C000400,-0724,0826,12173,029.7,045.5,0.253,753.9,01.17,0.508
2015-10-12 01:28:00,1833E-3,5C000400,-0724,0826,12374,029.7,045.5,0.253,754.0,01.17,0.508
2015-10-12 01:29:00,1988E-3,5C000400,-0724,0826,12265,029.7,045.5,0.253,753.9,01.17,0.508
2015-10-12 01:30:00,1957E-3,5C000400,-0724,0825,12271,029.7,045.5,0.253,754.0,01.17,0.508
2015-10-12 01:31:00,1903E-3,5C000400,-0724,0825,12172,029.7,045.5,0.253,753.9,01.17,0.508
2015-10-12 01:32:00,1968E-3,5C000400,-0724,0827,12154,029.7,045.5,0.253,754.0,01.17,0.508
2015-10-12 01:33:00,1842E-3,5C000400,-0724,0826,12227,029.7,045.5,0.253,753.9,01.17,0.508
2015-10-12 01:34:00,1975E-3,5C000400,-0724,0826,12229,029.7,045.5,0.253,754.0,01.17,0.508
2015-10-12 01:35:00,1953E-3,5C000400,-0724,0826,12303,029.7,045.5,0.253,754.1,01.17,0.508
2015-10-12 01:36:00,1855E-3,5C000400,-0724,0826,12326,029.7,045.5,0.253,754.2,01.17,0.508
2015-10-12 01:37:00,1858E-3,5C000400,-0724,0827,12082,029.7,045.5,0.253,754.0,01.17,0.508
2015-10-12 01:38:00,1848E-3,5C000400,-0724,0827,12319,029.7,045.5,0.253,754.0,01.17,0.508
2015-10-12 01:39:00,1788E-3,5C000400,-0724,0826,12323,029.7,045.5,0.254,754.0,01.17,0.508
2015-10-12 01:40:00,1825E-3,5C000400,-0724,0826,12219,029.7,045.5,0.253,754.1,01.17,0.508
2015-10-12 01:41:00,1907E-3,5C000400,-0724,0826,11997,029.7,045.5,0.253,754.1,01.17,0.508
2015-10-12 01:42:00,1828E-3,5C000400,-0724,0826,12110,029.7,045.5,0.253,754.1,01.17,0.508
2015-10-12 01:43:00,1966E-3,5C000400,-0724,0826,12232,029.7,045.5,0.253,754.2,01.17,0.508
2015-10-12 01:44:00,1946E-3,5C000400,-0724,0826,12214,029.7,045.5,0.253,753.7,01.17,0.508
2015-10-12 01:45:00,1902E-3,5C000400,-0724,0827,12251,029.7,045.5,0.253,754.2,01.17,0.508
2015-10-12 01:46:00,1982E-3,5C000400,-0724,0827,12230,029.7,045.5,0.253,753.8,01.17,0.508
2015-10-12 01:47:00,1958E-3,5C000400,-0724,0826,12179,029.7,045.5,0.253,753.9,01.17,0.508
2015-10-12 01:48:00,1857E-3,5C000400,-0724,0827,12134,029.7,045.5,0.253,754.1,01.17,0.508
2015-10-12 01:49:00,1891E-3,5C000400,-0724,0826,12299,029.7,045.5,0.253,754.0,01.17,0.508
2015-10-12 01:50:00,1914E-3,5C000400,-0724,0826,12268,029.7,045.5,0.253,754.1,01.17,0.508
2015-10-12 01:51:00,1818E-3,5C000400,-0724,0826,12240,029.7,045.5,0.253,754.1,01.17,0.508
2015-10-12 01:52:00,1900E-3,5C000400,-0724,0827,12145,029.7,045.5,0.253,753.9,01.17,0.508
2015-10-12 01:53:00,1899E-3,5C000400,-0724,0827,12104,029.7,045.5,0.253,753.7,01.17,0.508
2015-10-12 01:54:00,1855E-3,5C000400,-0724,0825,12194,029.7,045.5,0.253,754.1,01.17,0.508
2015-10-12 01:55:00,1820E-3,5C000400,-0724,0827,12245,029.7,045.5,0.253,753.9,01.17,0.508
2015-10-12 01:56:00,1969E-3,5C000400,-0724,0826,12299,029.7,045.5,0.253,754.1,01.17,0.508
2015-10-12 01:57:00,1825E-3,5C000400,-0724,0826,12244,029.7,045.5,0.254,753.7,01.17,0.508
2015-10-12 01:58:00,2033E-3,5C000400,-0724,0826,12156,029.7,045.5,0.254,753.8,01.17,0.508
2015-10-12 01:59:00,1917E-3,5C000400,-0724,0826,12059,029.8,045.5,0.253,754.1,01.17,0.508
2015-10-12 02:00:00,2034E-3,5C000400,-0724,0827,12176,029.8,045.5,0.253,754.0,01.17,0.508
2015-10-12 02:01:00,1978E-3,5C000400,-0724,0826,12201,029.8,045.5,0.253,754.2,01.17,0.508
2015-10-12 02:02:00,1957E-3,5C000400,-0724,0826,12226,029.8,045.5,0.253,754.1,01.17,0.508
2015-10-12 02:03:00,1937E-3,5C000400,-0724,0827,12231,029.8,045.5,0.253,754.2,01.17,0.508
2015-10-12 02:04:00,2018E-3,5C000400,-0724,0826,12248,029.8,045.5,0.253,754.1,01.17,0.508
2015-10-12 02:05:00,1886E-3,5C000400,-0724,0826,12343,029.8,045.5,0.253,753.8,01.17,0.508
2015-10-12 02:06:00,1920E-3,5C000400,-0724,0826,12308,029.7,045.5,0.253,753.9,01.17,0.508
2015-10-12 02:07:00,1775E-3,5C000400,-0724,0825,12291,029.7,045.5,0.253,753.9,01.17,0.508
2015-10-12 02:08:00,1912E-3,5C000400,-0724,0826,12333,029.8,045.5,0.253,753.5,01.17,0.508
2015-10-12 02:09:00,1716E-3,5C000400,-0724,0826,12171,029.8,045.5,0.253,753.7,01.17,0.508
2015-10-12 02:10:00,1914E-3,5C000400,-0724,0826,12178,029.8,045.5,0.253,753.8,01.17,0.508
2015-10-12 02:11:00,1888E-3,5C000400,-0724,0826,12203,029.8,045.5,0.253,754.0,01.17,0.508
2015-10-12 02:12:00,1822E-3,5C000400,-0724,0825,12219,029.8,045.5,0.253,753.8,01.17,0.508
2015-10-12 02:13:00,2057E-3,5C000400,-0724,0827,12252,029.8,045.5,0.253,753.9,01.17,0.508
2015-10-12 02:14:00,1870E-3,5C000400,-0724,0826,12154,029.8,045.5,0.253,753.8,01.17,0.508
2015-10-12 02:15:00,1957E-3,5C000400,-0724,0826,12155,029.8,045.5,0.253,753.8,01.17,0.508
2015-10-12 02:16:00,1905E-3,5C000400,-0724,0827,12202,029.8,045.5,0.253,753.6,01.17,0.508
2015-10-12 02:17:00,1898E-3,5C000400,-0724,0826,12340,029.8,045.5,0.253,753.8,01.17,0.508
2015-10-12 02:18:00,1832E-3,5C000400,-0724,0827,12166,029.8,045.5,0.253,753.8,01.17,0.508
2015-10-12 02:19:00,1976E-3,5C000400,-0724,0826,12267,029.8,045.5,0.253,753.8,01.17,0.508
2015-10-12 02:20:00,1819E-3,5C000400,-0724,0827,12181,029.8,045.5,0.253,753.7,01.17,0.508
2015-10-12 02:21:00,2033E-3,5C000400,-0724,0826,12325,029.8,045.5,0.253,753.8,01.17,0.508
2015-10-12 02:22:00,1916E-3,5C000400,-0724,0826,12185,029.8,045.5,0.253,753.6,01.17,0.508
2015-10-12 02:23:00,1847E-3,5C000400,-0724,0826,12203,029.8,045.5,0.253,754.0,01.17,0.508
2015-10-12 02:24:00,1954E-3,5C000400,-0724,0827,12363,029.8,045.5,0.253,753.9,01.17,0.508
2015-10-12 02:25:00,1883E-3,5C000400,-0724,0827,12126,029.8,045.5,0.253,753.5,01.17,0.508
2015-10-12 02:26:00,1866E-3,5C000400,-0724,0826,12289,029.8,045.5,0.253,753.7,01.17,0.508
2015-10-12 02:27:00,1833E-3,5C000400,-0724,0826,12251,029.8,045.5,0.253,753.8,01.17,0.508
2015-10-12 02:28:00,2007E-3,5C000400,-0724,0826,12083,029.8,045.5,0.253,753.5,01.17,0.508
2015-10-12 02:29:00,1786E-3,5C000400,-0724,0826,12300,029.8,045.5,0.253,754.0,01.17,0.508
2015-10-12 02:30:00,1873E-3,5C000400,-0724,0826,12341,029.8,045.5,0.253,753.7,01.17,0.508
2015-10-12 02:31:00,1827E-3,5C000400,-0724,0827,12136,029.8,045.5,0.253,753.7,01.17,0.508
2015-10-12 02:32:00,1850E-3,5C000400,-0724,0826,12158,029.8,045.5,0.253,753.8,01.17,0.508
2015-10-12 02:33:00,1849E-3,5C000400,-0724,0827,12352,029.8,045.5,0.253,753.9,01.17,0.508
2015-10-12 02:34:00,1891E-3,5C000400,-0724,0827,12300,029.8,045.5,0.253,754.1,01.17,0.508
2015-10-12 02:35:00,1741E-3,5C000400,-0724,0827,12140,029.8,045.5,0.253,753.9,01.17,0.508
2015-10-12 02:36:00,1845E-3,5C000400,-0724,0826,12195,029.8,045.5,0.253,754.0,01.17,0.508
2015-10-12 02:37:00,1969E-3,5C000400,-0724,0826,12174,029.8,045.5,0.253,753.9,01.17,0.508
2015-10-12 02:38:00,1892E-3,5C000400,-0724,0826,12314,029.9,045.5,0.253,753.7,01.17,0.508
2015-10-12 02:39:00,1813E-3,5C000400,-0724,0827,12268,029.8,045.5,0.253,753.9,01.17,0.508
2015-10-12 02:40:00,1872E-3,5C000400,-0724,0827,12195,029.8,045.5,0.253,753.9,01.17,0.508
2015-10-12 02:41:00,1816E-3,5C000400,-0724,0826,12324,029.9,045.5,0.253,753.8,01.17,0.508
2015-10-12 02:42:00,1927E-3,5C000400,-0724,0826,12321,029.8,045.5,0.253,754.0,01.17,0.508
2015-10-12 02:43:00,1920E-3,5C000400,-0724,0827,12309,029.8,045.5,0.253,753.6,01.17,0.508
2015-10-12 02:44:00,1928E-3,5C000400,-0724,0826,12157,029.9,045.5,0.253,753.7,01.17,0.508
2015-10-12 02:45:00,2055E-3,5C000400,-0724,0826,12166,029.9,045.5,0.253,753.8,01.17,0.508
2015-10-12 02:46:00,1848E-3,5C000400,-0724,0827,12104,029.8,045.5,0.252,753.6,01.17,0.508
2015-10-12 02:47:00,1867E-3,5C000400,-0724,0826,12200,029.9,045.5,0.252,753.4,01.17,0.508
2015-10-12 02:48:00,1833E-3,5C000400,-0724,0826,12164,029.8,045.5,0.253,753.4,01.17,0.508
2015-10-12 02:49:00,1969E-3,5C000400,-0724,0826,12266,029.8,045.5,0.253,753.5,01.17,0.508
2015-10-12 02:50:00,1884E-3,5C000400,-0724,0827,12173,029.9,045.5,0.253,753.2,01.17,0.508
2015-10-12 02:51:00,1886E-3,5C000400,-0724,0825,12150,029.8,045.5,0.253,753.3,01.17,0.508
2015-10-12 02:52:00,2020E-3,5C000400,-0724,0826,12255,029.8,045.5,0.253,753.3,01.17,0.508
2015-10-12 02:53:00,1930E-3,5C000400,-0724,0826,12179,029.8,045.5,0.253,753.3,01.17,0.508
2015-10-12 02:54:00,1833E-3,5C000400,-0724,0827,12262,029.8,045.5,0.253,753.5,01.17,0.508
2015-10-12 02:55:00,1954E-3,5C000400,-0724,0826,12346,029.8,045.5,0.253,753.5,01.17,0.508
2015-10-12 02:56:00,1867E-3,5C000400,-0724,0827,12220,029.9,045.5,0.253,753.3,01.17,0.508
2015-10-12 02:57:00,1857E-3,5C000400,-0724,0826,12270,029.9,045.5,0.253,753.1,01.17,0.508
2015-10-12 02:58:00,2078E-3,5C000400,-0724,0826,12313,029.9,045.5,0.253,753.1,01.17,0.508
2015-10-12 02:59:00,2012E-3,5C000400,-0724,0826,12135,029.9,045.5,0.253,753.3,01.17,0.508
2015-10-12 03:00:00,1892E-3,5C000400,-0724,0827,12325,029.9,045.5,0.253,753.0,01.17,0.508
2015-10-12 03:01:00,1775E-3,5C000400,-0724,0826,12059,029.9,045.5,0.253,752.9,01.17,0.508
2015-10-12 03:02:00,1808E-3,5C000400,-0724,0826,12041,029.9,045.5,0.253,753.0,01.17,0.508
2015-10-12 03:03:00,1975E-3,5C000400,-0724,0827,12286,029.9,045.5,0.253,753.1,01.17,0.508
2015-10-12 03:04:00,1906E-3,5C000400,-0724,0827,12104,029.9,045.5,0.253,752.8,01.17,0.508
2015-10-12 03:05:00,2018E-3,5C000400,-0724,0827,12132,029.9,045.5,0.253,752.8,01.17,0.508
2015-10-12 03:06:00,1796E-3,5C000400,-0724,0826,12141,029.8,045.5,0.252,752.7,01.17,0.508
2015-10-12 03:07:00,1843E-3,5C000400,-0724,0826,12303,029.9,045.5,0.253,752.7,01.17,0.508
2015-10-12 03:08:00,1900E-3,5C000400,-0724,0827,12185,029.9,045.5,0.253,752.7,01.17,0.508
2015-10-12 03:09:00,1947E-3,5C000400,-0724,0826,12242,029.8,045.5,0.253,752.4,01.17,0.508
2015-10-12 03:10:00,1894E-3,5C000400,-0724,0826,12214,029.9,045.5,0.253,752.6,01.17,0.508
2015-10-12 03:11:00,1941E-3,5C000400,-0724,0826,12122,029.9,045.5,0.253,752.4,01.17,0.508
2015-10-12 03:12:00,1983E-3,5C000400,-0724,0826,12169,029.9,045.5,0.253,752.8,01.17,0.508
2015-10-12 03:13:00,1833E-3,5C000400,-0724,0826,12314,029.9,045.5,0.253,752.5,01.17,0.508
2015-10-12 03:14:00,1830E-3,5C000400,-0724,0827,12205,029.9,045.5,0.253,752.8,01.17,0.508
2015-10-12 03:15:00,1803E-3,5C000400,-0724,0826,12245,029.9,045.5,0.252,752.7,01.17,0.508
2015-10-12 03:16:00,1835E-3,5C000400,-0724,0827,12147,029.9,045.5,0.253,752.8,01.17,0.508
2015-10-12 03:17:00,1715E-3,5C000400,-0724,0827,12318,029.8,045.5,0.253,752.6,01.17,0.508
2015-10-12 03:18:00,1821E-3,5C000400,-0724,0827,11985,029.8,045.5,0.253,752.8,01.17,0.508
2015-10-12 03:19:00,1878E-3,5C000400,-0724,0827,12253,029.8,045.5,0.253,753.0,01.17,0.508
2015-10-12 03:20:00,1816E-3,5C000400,-0724,0826,12161,029.9,045.5,0.253,752.9,01.17,0.508
2015-10-12 03:21:00,1840E-3,5C000400,-0724,0825,12333,029.9,045.5,0.253,752.5,01.17,0.508
2015-10-12 03:22:00,1902E-3,5C000400,-0724,0826,12242,029.9,045.5,0.253,753.3,01.17,0.508
2015-10-12 03:23:00,1873E-3,5C000400,-0724,0827,12212,029.9,045.5,0.253,753.2,01.17,0.508
2015-10-12 03:24:00,1916E-3,5C000400,-0724,0826,12281,029.9,045.5,0.253,753.2,01.17,0.508
2015-10-12 03:25:00,1864E-3,5C000400,-0724,0826,12278,029.9,045.5,0.253,753.3,01.17,0.508
2015-10-12 03:26:00,1891E-3,5C000400,-0724,0827,12348,029.9,045.5,0.252,753.0,01.17,0.508
2015-10-12 03:27:00,1917E-3,5C000400,-0724,0826,12153,029.9,045.5,0.252,752.8,01.17,0.508
2015-10-12 03:28:00,1908E-3,5C000400,-0724,0827,12086,029.9,045.5,0.252,752.9,01.17,0.508
2015-10-12 03:29:00,1941E-3,5C000400,-0724,0827,12303,029.9,045.5,0.253,753.0,01.17,0.508
2015-10-12 03:30:00,2000E-3,5C000400,-0724,0826,12184,029.9,045.5,0.253,752.9,01.17,0.508
2015-10-12 03:31:00,1958E-3,5C000400,-0724,0827,12242,029.9,045.5,0.253,753.1,01.17,0.508
2015-10-12 03:32:00,1861E-3,5C000400,-0724,0826,12292,029.9,045.5,0.253,753.2,01.17,0.508
2015-10-12 03:33:00,2017E-3,5C000400,-0724,0826,12285,029.9,045.5,0.253,753.1,01.17,0.508
2015-10-12 03:34:00,1819E-3,5C000400,-0724,0826,12084,029.8,045.5,0.253,753.2,01.17,0.508
2015-10-12 03:35:00,1994E-3,5C000400,-0724,0826,12367,029.9,045.5,0.253,753.3,01.17,0.508
2015-10-12 03:36:00,1869E-3,5C000400,-0724,0826,12138,029.9,045.5,0.253,753.4,01.17,0.508
2015-10-12 03:37:00,1999E-3,5C000400,-0724,0826,12212,029.9,045.5,0.253,753.3,01.17,0.508
2015-10-12 03:38:00,1755E-3,5C000400,-0724,0827,12253,029.9,045.5,0.253,753.5,01.17,0.508
2015-10-12 03:39:00,2032E-3,5C000400,-0724,0827,12264,029.9,045.5,0.253,753.3,01.17,0.508
2015-10-12 03:40:00,1837E-3,5C000400,-0724,0827,12196,029.9,045.5,0.253,753.4,01.17,0.508
2015-10-12 03:41:00,1927E-3,5C000400,-0724,0827,12173,029.9,045.5,0.253,753.6,01.17,0.508
2015-10-12 03:42:00,1881E-3,5C000400,-0724,0827,12349,029.9,045.5,0.253,753.6,01.17,0.508
2015-10-12 03:43:00,1865E-3,5C000400,-0724,0826,12189,029.9,045.5,0.253,753.6,01.17,0.508
2015-10-12 03:44:00,1922E-3,5C000400,-0724,0826,12199,029.9,045.5,0.253,753.6,01.17,0.508
2015-10-12 03:45:00,1878E-3,5C000400,-0724,0826,12170,029.9,045.5,0.253,753.6,01.17,0.508
2015-10-12 03:46:00,1862E-3,5C000400,-0724,0827,12251,029.9,045.5,0.253,753.6,01.17,0.508
2015-10-12 03:47:00,1733E-3,5C000400,-0724,0827,12256,029.9,045.5,0.253,753.7,01.17,0.508
2015-10-12 03:48:00,1828E-3,5C000400,-0724,0827,12272,029.9,045.5,0.252,753.7,01.17,0.508
2015-10-12 03:49:00,1902E-3,5C000400,-0724,0826,12213,029.9,045.5,0.252,753.7,01.17,0.508
2015-10-12 03:50:00,1828E-3,5C000400,-0724,0826,12115,029.9,045.5,0.252,753.6,01.17,0.508
2015-10-12 03:51:00,1870E-3,5C000400,-0724,0827,12279,029.9,045.5,0.252,753.7,01.17,0.508
2015-10-12 03:52:00,1905E-3,5C000400,-0724,0826,12244,029.9,045.5,0.252,753.7,01.17,0.508
2015-10-12 03:53:00,1804E-3,5C000400,-0724,0826,12231,029.9,045.5,0.252,753.7,01.17,0.508
2015-10-12 03:54:00,1880E-3,5C000400,-0724,0826,12311,029.9,045.5,0.252,753.8,01.17,0.508
2015-10-12 03:55:00,1925E-3,5C000400,-0724,0827,12154,029.9,045.5,0.252,753.8,01.17,0.508
2015-10-12 03:56:00,1855E-3,5C000400,-0724,0826,12245,029.9,045.5,0.253,753.8,01.17,0.508
2015-10-12 03:57:00,1918E-3,5C000400,-0724,0826,12249,029.9,045.5,0.253,753.8,01.17,0.508
2015-10-12 03:58:00,1957E-3,5C000400,-0724,0827,12252,029.9,045.5,0.253,753.8,01.17,0.508
2015-10-12 03:59:00,1835E-3,5C000400,-0724,0826,12138,029.9,045.5,0.253,753.9,01.17,0.508
2015-10-12 04:00:00,1924E-3,5C000400,-0724,0826,12112,029.9,045.5,0.253,754.0,01.17,0.508
2015-10-12 04:01:00,1874E-3,5C000400,-0724,0826,12215,029.9,045.5,0.253,754.1,01.17,0.508
2015-10-12 04:02:00,1919E-3,5C000400,-0724,0826,12269,029.9,045.5,0.253,754.1,01.17,0.508
2015-10-12 04:03:00,1865E-3,5C000400,-0724,0827,12253,029.9,045.5,0.253,754.1,01.17,0.508
2015-10-12 04:04:00,1912E-3,5C000400,-0724,0827,12217,029.9,045.5,0.253,754.2,01.17,0.508
2015-10-12 04:05:00,1898E-3,5C000400,-0724,0826,12212,029.9,045.5,0.253,754.3,01.17,0.508
2015-10-12 04:06:00,1844E-3,5C000400,-0724,0826,12225,029.9,045.5,0.253,754.2,01.17,0.508
2015-10-12 04:07:00,1859E-3,5C000400,-0724,0826,12275,030.0,045.5,0.253,754.2,01.17,0.508
2015-10-12 04:08:00,1780E-3,5C000400,-0724,0827,12389,029.9,045.5,0.253,754.3,01.17,0.508
2015-10-12 04:09:00,1886E-3,5C000400,-0724,0827,12373,030.0,045.5,0.253,754.4,01.17,0.508
2015-10-12 04:10:00,2002E-3,5C000400,-0724,0826,12350,030.0,045.5,0.253,754.5,01.17,0.508
2015-10-12 04:11:00,1889E-3,5C000400,-0724,0827,12305,030.0,045.5,0.253,754.5,01.17,0.508
2015-10-12 04:12:00,1865E-3,5C000400,-0724,0826,12349,030.0,045.5,0.253,754.5,01.17,0.508
2015-10-12 04:13:00,1970E-3,5C000400,-0724,0826,12172,030.0,045.5,0.253,754.5,01.17,0.508
2015-10-12 04:14:00,1941E-3,5C000400,-0724,0827,12150,030.0,045.5,0.253,754.6,01.17,0.508
2015-10-12 04:15:00,1880E-3,5C000400,-0724,0826,12337,030.0,045.5,0.253,754.3,01.17,0.508
2015-10-12 04:16:00,1923E-3,5C000400,-0724,0827,12128,030.0,045.5,0.253,754.4,01.17,0.508
2015-10-12 04:17:00,1876E-3,5C000400,-0724,0827,12151,030.0,045.5,0.253,754.5,01.17,0.508
2015-10-12 04:18:00,1866E-3,5C000400,-0724,0826,12254,030.0,045.5,0.253,754.5,01.17,0.508
2015-10-12 04:19:00,1859E-3,5C000400,-0724,0826,12389,030.0,045.5,0.253,754.4,01.17,0.508
2015-10-12 04:20:00,1801E-3,5C000400,-0724,0826,12286,030.0,045.5,0.253,754.5,01.17,0.508